Location: Владивосток
(43.1151°N, 131.8856°E)
Time: 20:44:33
(UTC+10:00)

DX 1 - Pass Details

Date: 03 July 2022
Orbit: 617 x 629 km, 98.4° (Epoch: 10 August)

Event Time Altitude Azimuth Distance (km) Brightness Sun altitude
Rises 23:30:41 0° 359° (N) 2,929 ? -19.6°
Reaches altitude 10° 23:33:19 10° 344° (NNW) 2,015 ? -19.8°
Maximum altitude 23:36:34 21° 295° (WNW) 1,418 ? -20.0°
Drops below altitude 10° 23:39:50 10° 247° (WSW) 1,999 ? -20.3°
Enters shadow 23:42:02 - 233° (SW) 2,754 ? -20.5°
